This is the latest recevied weather packets stored in our database for station/object N3FAA. If no packets are shown the sender has not sent any weather packets the latest 10 day(s).
| Time | Temp. | Humidity | Pressure | Rain* | Wind** | Luminosity | Snow |
|---|---|---|---|---|---|---|---|
| 1777485656 | 21.11° C | 33% | 1014.7 hPa | 0 mm | - | 1005 W/m² | - |
| 1777485351 | 21.11° C | 33% | 1014.9 hPa | 0 mm | - | 965 W/m² | - |
| 1777485047 | 20.56° C | 32% | 1015 hPa | 0 mm | - | 947 W/m² | - |
| 1777484745 | 20.56° C | 35% | 1014.9 hPa | 0 mm | - | 891 W/m² | - |
| 1777484441 | 20° C | 35% | 1015 hPa | 0 mm | - | 809 W/m² | - |
| 1777484138 | 20.56° C | 34% | 1015 hPa | 0 mm | - | 820 W/m² | - |
| 1777483834 | 20.56° C | 34% | 1015 hPa | 0 mm | - | 851 W/m² | - |
| 1777483531 | 20.56° C | 36% | 1014.9 hPa | 0 mm | - | 801 W/m² | - |
| 1777483226 | 20.56° C | 35% | 1015.1 hPa | 0 mm | - | 794 W/m² | - |
| 1777482922 | 20.56° C | 37% | 1015.3 hPa | 0 mm | - | 796 W/m² | - |
| 1777482618 | 20° C | 35% | 1015 hPa | 0 mm | - | 802 W/m² | - |
| 1777482316 | 20° C | 35% | 1015.3 hPa | 0 mm | - | 773 W/m² | - |
| 1777482013 | 19.44° C | 37% | 1015.1 hPa | 0 mm | - | 733 W/m² | - |
| 1777481710 | 20° C | 37% | 1015.1 hPa | 0 mm | - | 757 W/m² | - |
| 1777481408 | 19.44° C | 38% | 1015.2 hPa | 0 mm | - | 746 W/m² | - |
| 1777481104 | 19.44° C | 38% | 1015.2 hPa | 0 mm | - | 734 W/m² | - |
| 1777480800 | 19.44° C | 37% | 1015.2 hPa | 0 mm | - | 679 W/m² | - |
| 1777480497 | 19.44° C | 36% | 1015.3 hPa | 0 mm | - | 678 W/m² | - |
| 1777480194 | 18.89° C | 39% | 1015.3 hPa | 0 mm | - | 668 W/m² | - |
| 1777479890 | 18.33° C | 41% | 1015.3 hPa | 0 mm | - | 643 W/m² | - |
| 1777479587 | 18.89° C | 40% | 1015.3 hPa | 0 mm | - | 619 W/m² | - |
| 1777479284 | 18.33° C | 40% | 1015.4 hPa | 0 mm | - | 586 W/m² | - |
| 1777478981 | 18.33° C | 41% | 1015.3 hPa | 0 mm | - | 553 W/m² | - |
| 1777478678 | 17.78° C | 42% | 1015.3 hPa | 0 mm | - | 508 W/m² | - |
| 1777478374 | 17.78° C | 41% | 1015.2 hPa | 0 mm | - | 460 W/m² | - |
* Rain latest hour (hover to see other rain measurements)
** Current wind speed in m/s (hover to see current wind gust speed)